{"data":{"norad_id":64502,"intl_designator":"2025-134C","name":"KUIPER-00041","alt_names":[],"object_type":"PAYLOAD","status":"ACTIVE","operator":null,"country":"US","launch_date":"2025-06-23","launch_site_code":"AFETR","launch_vehicle":null,"mission":null,"orbit_class":"UNKNOWN","rcs_meters":null,"size_class":null,"mass_kg":null,"dimensions":null,"purposes":[],"wikipedia_slug":null,"has_3d_model":false,"image_url":null,"decayed_at":null,"tle_current":{"epoch":"2026-09-21T22:13:29.037792Z","epoch_age_seconds":58361,"freshness":"FRESH","line1":"1 64502U 25134C   26264.92603053 -.00000337  00000+0 -15138-4 0  9996","line2":"2 64502  51.8999  97.8120 0000830 111.1317 248.9734 14.79930559 68950","mean_motion":14.79930559,"eccentricity":8.3e-5,"inclination_deg":51.8999,"raan_deg":97.812,"arg_perigee_deg":111.1317,"mean_anomaly_deg":248.9734,"bstar":-1.5138e-5,"rev_number":6895,"period_min":97.301862661247,"perigee_km":628.96169734991,"apogee_km":630.1249722855,"semimajor_km":7007.6803348177,"source":"CELESTRAK","updated_at":"2026-09-22T09:00:29.805983Z"}}}